Wind_Speed
10 11 10 11 12 12 13 12 12 11 11 11 10 9 9 8 7 6 5 3 4 3 2 2 2 3 3 2 5 6 6 6 8 9 10 12 13 13 14 14 14 15 16 17 18 18 20 19 17
11 11 11 11 11 12 12 11 11 12 11 11 10 10 10 10 11 9 6 4 5 6 6 5 4 5 5 4 4 5 5 5 5 7 8 10 12 14 15 16 16 16 16 17 16 15 16 16 17
8 8 9 10 11 11 10 10 10 10 10 10 9 9 10 10 10 10 9 6 4 5 7 9 9 8 7 8 8 6 7 8 6 6 7 9 10 12 14 15 16 16 17 16 15 15 16 15 14
9 8 8 9 9 10 11 10 10 10 11 9 9 8 7 8 10 10 9 8 7 4 6 9 11 11 11 10 10 11 11 9 9 10 10 10 11 12 13 14 13 15 15 15 16 15 16 16 15
10 9 9 10 10 10 9 10 10 8 8 9 10 10 7 8 7 7 7 7 7 6 5 5 8 10 12 14 14 13 14 14 15 14 13 13 14 14 14 15 15 14 14 14 13 13 14 14 13
11 11 12 12 12 13 13 13 13 12 11 11 12 14 12 10 8 9 9 8 8 8 7 7 7 8 10 12 15 16 17 16 17 18 18 18 17 17 18 18 19 18 18 17 16 17 17 15 13
14 13 14 14 15 16 16 17 17 16 17 17 17 17 18 15 13 13 12 12 11 10 10 9 10 10 10 11 12 14 17 18 19 19 20 21 21 20 20 20 20 20 20 19 19 18 17 15 14
17 17 16 17 18 18 19 20 21 20 21 22 21 21 21 20 20 18 17 16 15 15 13 11 11 12 12 12 13 13 14 16 17 19 21 22 23 23 24 25 24 24 23 21 21 20 20 21 20
18 18 19 20 20 19 19 20 23 21 21 23 24 23 23 22 23 23 22 22 21 20 20 18 17 17 15 15 15 16 16 16 16 18 20 20 22 24 26 27 27 27 27 25 24 25 25 25 25
20 20 20 21 21 19 18 19 23 22 21 25 24 27 24 24 25 25 25 25 26 27 25 25 24 23 22 22 20 19 19 19 19 20 21 21 22 23 25 26 27 29 30 30 29 28 28 28 28
24 24 25 24 24 21 19 21 22 24 19 26 25 27 27 25 25 26 27 28 29 30 32 32 30 30 28 28 27 25 24 24 24 24 23 23 25 26 26 27 28 29 30 32 33 33 32 31 31
30 27 29 27 28 27 26 24 24 25 20 28 25 23 25 26 26 26 27 27 29 29 31 33 35 34 35 34 32 32 31 30 29 29 27 27 27 27 27 29 30 30 30 32 33 34 35 34 34
33 31 31 32 32 33 35 27 34 24 29 31 29 27 28 28 28 28 26 27 29 29 30 32 32 33 34 35 37 37 36 36 35 33 32 32 31 32 31 29 29 30 32 32 33 35 36 37 36
32 30 30 30 32 39 40 32 35 27 37 34 33 32 32 30 32 29 30 29 30 31 33 34 32 33 30 32 34 38 38 39 38 37 37 37 37 36 35 33 32 31 32 33 34 35 36 37 36
37 36 33 30 35 40 43 35 34 36 39 38 35 34 32 32 33 34 35 36 36 33 34 36 38 37 33 31 32 33 35 37 38 39 40 40 41 40 39 38 37 36 34 34 35 36 37 38 37
39 41 39 31 35 45 47 42 31 38 40 37 35 32 33 34 36 39 38 37 37 35 34 37 39 40 38 35 32 30 29 31 33 34 36 40 41 42 42 41 41 40 38 37 38 38 40 41 41
43 49 46 36 32 46 52 49 35 35 39 33 33 33 33 35 38 41 39 38 36 35 33 33 35 37 39 39 35 32 29 30 32 33 36 38 40 42 43 43 43 43 42 41 40 41 42 42 42
49 50 48 47 37 44 47 50 43 35 36 32 30 31 36 39 39 37 37 40 41 38 33 29 28 32 36 38 39 37 35 32 34 35 38 40 40 41 42 43 44 45 45 44 43 42 42 44 44
53 52 53 48 49 52 45 51 49 42 36 32 31 34 35 38 35 37 38 36 35 36 40 37 33 31 30 32 36 38 38 39 38 36 40 43 41 42 43 43 44 44 46 48 48 45 45 46 47
53 57 50 50 45 50 52 50 49 47 40 38 37 36 36 37 37 33 34 36 37 38 37 38 35 34 31 32 36 38 38 40 43 42 44 44 44 46 48 49 48 48 49 51 51 49 49 51 51
46 49 52 53 47 46 51 52 53 49 42 44 41 43 43 42 42 43 43 43 40 38 35 31 31 30 34 35 34 38 40 41 43 44 46 46 49 49 51 52 51 50 50 50 51 50 50 52 53
52 49 51 55 56 54 51 56 53 58 53 55 54 54 50 50 47 44 41 39 41 42 41 40 42 42 41 40 41 43 43 43 44 46 47 48 50 49 50 50 52 52 52 49 47 49 51 53 51
50 51 49 50 56 58 55 55 57 59 60 57 59 55 55 51 39 40 45 55 50 49 50 48 48 49 48 46 44 44 47 49 50 50 50 50 50 50 49 50 51 52 53 53 53 51 49 49 49
47 49 52 52 52 60 57 56 59 55 56 49 53 57 48 36 40 42 45 55 55 59 58 57 53 55 57 55 52 53 51 50 53 53 53 54 55 55 54 54 53 54 53 54 55 55 54 52 52
54 55 57 61 60 59 61 61 65 61 59 58 57 58 60 58 60 61 58 59 61 60 59 60 60 57 55 56 54 54 56 55 55 57 58 57 58 59 61 60 58 56 54 55 55 57 57 55 54
62 61 60 62 65 68 65 69 64 68 67 69 67 66 67 68 69 71 72 68 66 63 60 57 55 48 47 53 53 55 59 63 62 61 63 64 65 66 66 64 64 62 60 56 56 57 60 59 58
64 63 59 61 63 67 73 75 75 67 71 73 71 73 72 71 73 73 70 70 72 71 67 64 59 58 54 54 61 61 59 62 66 68 69 71 72 72 71 70 69 67 65 63 60 60 60 59 59
52 62 63 64 66 70 71 72 73 67 67 67 65 64 65 67 69 72 73 71 70 69 71 68 63 61 63 63 65 61 59 61 64 71 71 72 74 74 72 71 69 70 68 67 63 59 59 60 60
61 65 66 63 65 69 70 69 64 63 68 68 66 66 67 65 63 64 67 70 70 68 66 68 67 64 63 67 62 62 64 65 67 70 71 75 78 77 73 70 65 66 68 68 69 63 59 61 60
59 55 53 57 63 64 63 66 59 49 48 60 68 68 68 69 68 68 68 63 63 65 67 69 70 68 64 65 63 66 68 68 70 72 72 72 73 73 70 70 67 62 63 68 69 67 62 64 66
Wind_Direction
37 38 46 49 51 53 50 45 43 40 36 29 20 10 12 14 9 349 317 288 235 209 199 173 175 140 128 161 145 162 190 196 187 180 185 189 189 187 186 186 185 202 205 212 212 214 217 221 227
40 37 39 36 39 41 42 40 37 36 38 29 24 13 8 14 12 15 356 301 261 236 227 237 231 214 200 188 202 212 197 189 212 216 200 194 196 198 195 193 201 196 203 208 212 209 218 216 229
38 30 27 23 16 22 22 22 22 20 25 20 20 19 13 10 359 2 7 356 298 260 241 236 240 233 228 221 218 220 229 234 228 232 222 214 208 201 197 195 197 194 197 198 201 205 213 211 205
9 9 4 360 359 360 358 360 360 360 359 1 356 357 360 358 359 353 348 352 344 301 265 253 242 238 236 234 229 225 227 227 238 233 232 230 218 217 214 210 209 204 201 200 200 200 203 202 202
335 327 329 327 331 331 327 324 322 326 330 328 324 319 329 335 346 346 336 329 332 330 306 266 254 252 245 240 238 236 232 230 230 236 237 233 234 233 227 221 218 214 211 215 218 219 221 218 213
320 318 314 312 308 306 306 304 301 303 300 294 291 295 305 310 312 312 316 313 306 303 307 308 294 269 255 252 247 242 239 235 235 236 238 236 236 233 233 234 228 224 223 225 230 235 231 232 232
307 307 298 295 293 294 294 293 291 292 289 286 281 285 290 292 291 290 287 290 292 289 288 289 287 285 280 269 256 251 250 243 239 237 238 241 241 239 238 237 237 238 240 241 238 238 238 233 233
306 309 302 298 294 292 292 289 289 288 289 287 280 278 281 287 288 283 280 277 280 282 282 283 281 279 279 278 277 268 257 255 253 252 248 245 245 244 243 240 240 243 246 247 248 247 245 246 248
305 312 307 301 300 297 296 291 288 288 288 287 283 280 280 279 280 280 281 281 277 274 274 277 274 274 275 276 272 272 270 269 266 262 261 257 253 249 247 245 245 246 248 249 252 251 252 254 255
302 311 300 301 301 305 305 299 291 290 286 284 283 286 285 283 280 280 278 276 279 280 274 269 270 270 270 269 270 273 273 269 270 271 271 270 266 262 258 253 250 249 247 249 250 252 255 257 259
304 304 297 298 298 300 296 292 294 288 292 283 289 289 295 292 284 280 277 276 276 275 277 277 270 268 267 268 268 267 266 269 269 269 269 271 272 270 268 265 260 256 253 250 249 251 254 257 259
296 298 293 293 291 293 288 290 285 288 289 280 290 295 292 291 292 290 285 282 277 276 275 272 271 268 266 266 266 265 266 266 266 267 269 270 269 269 269 267 265 264 262 258 256 257 259 261 262
295 291 290 289 292 286 281 283 285 300 283 283 291 294 290 290 290 292 293 285 277 272 270 270 269 267 265 265 265 264 261 261 263 265 267 267 268 267 266 268 267 266 264 263 263 262 262 263 262
296 294 291 290 287 280 281 282 284 290 279 284 286 288 293 297 297 295 287 278 271 266 265 270 274 272 271 269 267 265 265 265 265 265 264 264 264 265 265 265 265 268 268 265 264 264 264 262 261
296 294 293 294 286 287 284 281 285 280 279 283 287 291 293 294 289 287 281 274 271 270 270 274 276 280 285 279 275 273 271 266 264 263 263 264 264 264 265 266 265 265 268 269 268 267 265 264 262
295 294 291 289 293 289 286 285 285 282 282 286 289 286 286 282 282 278 279 283 282 280 276 274 276 280 281 281 278 273 268 266 267 267 266 266 267 267 265 264 264 265 266 266 266 266 266 264 263
293 292 290 287 290 284 284 287 285 283 283 286 284 282 277 274 273 278 282 282 278 278 278 276 274 273 274 274 274 272 269 266 267 269 271 269 266 265 263 263 262 262 263 265 267 267 267 267 264
291 292 294 294 287 281 287 292 291 285 281 290 284 279 279 277 278 276 275 277 278 278 275 267 267 270 270 270 271 270 268 267 269 267 266 265 264 262 261 262 261 261 262 264 266 265 267 266 263
288 288 288 292 292 288 286 285 291 288 287 281 280 280 279 281 279 278 275 274 274 281 282 277 273 264 263 266 269 270 266 262 262 262 266 267 264 261 260 262 262 262 262 261 263 263 263 263 262
283 285 288 288 289 286 287 285 283 286 288 285 282 277 278 280 278 272 273 275 270 278 278 280 275 272 263 257 257 260 264 266 266 266 267 268 269 265 263 263 263 264 262 262 263 262 260 258 259
277 280 283 283 281 283 285 287 288 292 289 286 282 277 277 275 274 274 275 277 277 275 274 270 265 273 279 273 265 262 259 258 262 262 260 262 262 262 263 265 267 268 270 267 263 262 261 259 258
273 273 277 281 282 281 280 282 287 289 295 294 292 288 287 287 285 279 276 273 273 269 272 276 275 274 275 278 280 278 272 266 260 260 260 257 256 258 260 264 266 268 267 266 264 263 262 260 259
277 278 275 276 278 280 279 282 288 290 293 294 291 297 297 295 290 287 285 285 282 275 271 269 271 277 284 281 276 272 278 281 276 269 265 262 261 260 259 259 260 264 267 266 264 262 261 260 255
281 282 281 277 277 278 283 284 281 289 289 292 293 298 292 287 281 277 266 276 281 282 280 277 273 274 276 278 280 279 276 274 274 271 268 266 265 263 259 257 258 259 263 265 264 259 257 255 254
283 282 283 281 278 278 277 275 274 283 285 286 286 286 285 283 281 281 278 276 277 278 277 275 274 273 273 272 271 270 270 267 263 265 266 263 261 262 264 261 257 254 252 254 258 259 256 255 256
283 282 279 282 282 282 278 271 274 280 282 282 284 280 279 277 278 279 280 280 280 281 281 280 279 271 262 258 254 262 260 262 259 256 257 258 259 258 259 261 261 259 255 252 252 252 255 257 257
283 281 283 279 278 277 279 278 275 279 279 280 279 280 282 281 279 279 278 276 275 275 275 275 274 269 263 253 254 264 262 260 261 259 255 252 252 254 255 257 257 257 258 255 250 249 249 249 248
270 280 280 280 277 278 281 283 284 283 281 279 279 279 278 278 276 274 275 274 273 271 271 270 267 263 264 255 256 257 254 253 255 259 260 260 257 254 255 255 257 261 258 254 249 245 246 246 247
276 275 277 277 276 280 283 284 284 282 280 282 279 281 281 279 276 275 274 276 275 271 268 266 263 259 255 254 252 248 249 249 252 257 259 259 259 261 258 258 258 260 256 251 246 242 241 245 244
283 278 277 277 280 280 279 279 281 273 265 273 278 279 278 279 279 279 276 271 267 270 270 268 263 258 258 256 252 247 245 252 250 252 258 256 257 256 255 255 253 252 253 250 246 247 242 244 247
Height
5885 5884 5883 5882 5884 5880 5879 5879 5877 5875 5874 5872 5872 5871 5870 5868 5867 5867 5864 5863 5864 5865 5865 5864 5864 5864 5864 5864 5864 5863 5863 5863 5863 5863 5863 5862 5862 5862 5863 5863 5864 5866 5867 5869 5868 5869 5870 5871 5872
5885 5884 5884 5883 5883 5881 5880 5878 5877 5876 5874 5873 5872 5871 5869 5868 5866 5864 5863 5862 5862 5863 5863 5864 5864 5863 5864 5864 5864 5864 5864 5864 5863 5863 5863 5863 5863 5863 5863 5863 5865 5865 5866 5866 5867 5867 5868 5868 5869
5885 5884 5884 5883 5882 5881 5880 5878 5877 5876 5874 5873 5871 5870 5869 5868 5866 5864 5863 5862 5861 5860 5861 5861 5862 5862 5862 5863 5863 5863 5863 5864 5863 5863 5863 5863 5863 5863 5863 5863 5864 5864 5865 5865 5865 5866 5867 5867 5866
5885 5885 5884 5883 5881 5880 5879 5877 5876 5875 5874 5872 5871 5870 5868 5867 5865 5864 5863 5862 5860 5859 5859 5859 5859 5860 5860 5861 5861 5862 5862 5862 5862 5862 5862 5862 5862 5863 5862 5862 5863 5863 5863 5863 5863 5863 5864 5864 5865
5885 5884 5883 5881 5880 5879 5877 5876 5874 5873 5872 5871 5869 5868 5867 5866 5864 5863 5862 5860 5860 5859 5858 5857 5857 5857 5857 5858 5858 5859 5860 5860 5861 5861 5861 5862 5862 5862 5862 5863 5862 5862 5862 5863 5862 5862 5864 5863 5862
5883 5883 5881 5880 5878 5877 5876 5874 5872 5871 5870 5869 5866 5865 5865 5864 5863 5862 5861 5859 5858 5857 5857 5856 5855 5855 5854 5854 5855 5855 5856 5857 5858 5858 5859 5860 5860 5860 5861 5861 5861 5861 5862 5861 5861 5862 5862 5861 5860
5881 5880 5878 5877 5875 5874 5873 5871 5870 5869 5867 5866 5864 5863 5862 5861 5861 5859 5858 5857 5856 5855 5855 5854 5853 5853 5852 5852 5851 5851 5852 5853 5854 5855 5855 5856 5857 5857 5857 5857 5857 5858 5859 5859 5859 5860 5859 5858 5859
5878 5877 5875 5874 5872 5872 5870 5868 5866 5866 5864 5862 5861 5860 5860 5858 5857 5856 5855 5854 5854 5853 5852 5851 5851 5849 5849 5849 5848 5848 5848 5848 5849 5849 5850 5851 5852 5852 5853 5853 5853 5853 5854 5855 5855 5854 5855 5855 5856
5875 5874 5872 5869 5869 5868 5866 5864 5861 5861 5860 5857 5856 5856 5855 5854 5853 5852 5852 5851 5850 5849 5849 5848 5847 5847 5846 5845 5845 5845 5845 5845 5845 5845 5845 5845 5846 5846 5847 5847 5848 5848 5848 5849 5849 5849 5849 5850 5851
5871 5870 5867 5865 5864 5864 5862 5860 5856 5856 5856 5851 5852 5850 5850 5849 5848 5847 5846 5846 5845 5844 5844 5844 5843 5842 5842 5841 5841 5841 5841 5841 5841 5840 5840 5840 5840 5840 5840 5840 5841 5841 5842 5842 5843 5843 5844 5845 5844
5868 5866 5863 5862 5859 5859 5858 5855 5853 5851 5853 5846 5847 5846 5845 5844 5843 5842 5841 5840 5839 5839 5838 5837 5838 5837 5837 5837 5836 5837 5836 5836 5836 5836 5836 5835 5835 5835 5834 5834 5834 5834 5834 5835 5836 5837 5837 5837 5838
5861 5861 5857 5857 5854 5852 5850 5850 5848 5845 5847 5841 5841 5841 5839 5837 5837 5837 5835 5834 5832 5830 5829 5829 5828 5830 5830 5831 5831 5830 5830 5830 5831 5831 5831 5831 5829 5829 5829 5828 5829 5828 5828 5828 5828 5829 5829 5830 5830
5854 5853 5851 5849 5848 5845 5841 5844 5839 5844 5837 5836 5836 5836 5833 5832 5832 5831 5830 5827 5825 5824 5821 5819 5819 5820 5821 5823 5823 5824 5824 5824 5824 5824 5825 5825 5824 5823 5823 5822 5822 5821 5821 5821 5821 5822 5822 5822 5823
5845 5845 5844 5844 5841 5834 5833 5839 5834 5839 5829 5830 5829 5829 5827 5827 5825 5824 5821 5818 5816 5815 5814 5813 5813 5812 5814 5815 5816 5817 5817 5817 5817 5817 5817 5816 5816 5816 5816 5816 5816 5815 5815 5815 5815 5815 5815 5816 5816
5835 5835 5836 5837 5832 5826 5822 5830 5832 5828 5823 5824 5826 5825 5824 5821 5817 5813 5810 5808 5807 5811 5811 5810 5807 5807 5808 5809 5809 5809 5810 5809 5808 5808 5808 5808 5808 5807 5807 5808 5808 5807 5806 5806 5807 5807 5808 5808 5809
5827 5825 5827 5834 5828 5815 5811 5817 5827 5818 5815 5818 5818 5817 5815 5812 5807 5801 5800 5802 5802 5803 5804 5803 5801 5799 5799 5800 5800 5801 5801 5800 5800 5800 5799 5799 5799 5799 5799 5799 5798 5798 5799 5798 5798 5799 5799 5799 5800
5820 5813 5815 5820 5823 5807 5799 5801 5815 5813 5807 5811 5809 5807 5804 5802 5798 5793 5793 5793 5793 5793 5794 5793 5791 5791 5789 5788 5789 5791 5792 5793 5792 5792 5791 5790 5789 5789 5788 5788 5788 5789 5789 5790 5790 5789 5789 5790 5790
5808 5805 5803 5803 5814 5801 5798 5791 5797 5802 5799 5800 5798 5796 5793 5791 5791 5790 5785 5782 5781 5781 5782 5782 5782 5781 5780 5779 5778 5779 5781 5783 5783 5783 5782 5780 5780 5778 5778 5779 5779 5779 5780 5780 5780 5779 5780 5780 5780
5799 5796 5792 5796 5794 5787 5795 5785 5785 5789 5791 5790 5787 5784 5783 5782 5782 5780 5777 5775 5775 5774 5774 5775 5773 5771 5772 5770 5769 5769 5770 5770 5770 5772 5771 5771 5771 5771 5769 5768 5768 5769 5769 5768 5769 5770 5770 5769 5769
5790 5786 5785 5779 5782 5777 5775 5776 5776 5775 5780 5778 5777 5776 5774 5772 5772 5771 5769 5768 5766 5765 5765 5764 5765 5764 5760 5759 5758 5758 5759 5760 5760 5761 5760 5760 5760 5761 5760 5759 5759 5758 5757 5757 5758 5759 5759 5759 5758
5780 5777 5775 5769 5769 5769 5762 5762 5761 5764 5766 5764 5766 5762 5763 5762 5761 5761 5760 5758 5757 5756 5755 5755 5754 5754 5755 5753 5749 5747 5746 5746 5747 5746 5744 5744 5743 5744 5746 5748 5748 5748 5747 5747 5746 5747 5748 5747 5747
5766 5767 5766 5763 5759 5752 5755 5748 5753 5751 5750 5747 5746 5747 5748 5747 5750 5752 5751 5750 5749 5747 5745 5744 5742 5742 5742 5743 5742 5741 5739 5737 5733 5732 5731 5729 5725 5727 5729 5731 5734 5736 5735 5735 5736 5734 5734 5734 5736
5756 5755 5753 5751 5749 5747 5743 5742 5742 5739 5739 5736 5731 5734 5730 5729 5732 5734 5738 5740 5740 5738 5735 5733 5731 5729 5729 5728 5728 5727 5727 5726 5726 5724 5721 5718 5717 5714 5714 5715 5716 5720 5723 5723 5723 5722 5723 5722 5722
5746 5743 5741 5738 5737 5738 5738 5736 5732 5730 5727 5726 5724 5723 5722 5722 5720 5721 5721 5718 5719 5722 5724 5723 5721 5720 5717 5715 5714 5713 5711 5711 5712 5712 5710 5708 5706 5704 5702 5701 5702 5703 5705 5708 5711 5709 5708 5709 5710
5733 5730 5726 5723 5722 5726 5723 5724 5725 5719 5721 5720 5718 5715 5712 5709 5708 5707 5707 5704 5701 5699 5700 5703 5703 5703 5703 5701 5699 5698 5697 5696 5695 5696 5697 5695 5693 5692 5691 5689 5686 5685 5686 5687 5692 5696 5698 5697 5698
5717 5717 5715 5706 5708 5707 5707 5709 5717 5706 5706 5701 5699 5698 5696 5697 5690 5687 5684 5685 5683 5682 5680 5679 5679 5680 5682 5681 5680 5681 5680 5678 5676 5676 5676 5677 5676 5676 5674 5674 5674 5673 5670 5671 5673 5674 5680 5684 5686
5702 5700 5700 5689 5690 5684 5691 5691 5696 5693 5688 5684 5682 5677 5676 5673 5673 5667 5665 5665 5663 5662 5662 5661 5662 5661 5661 5662 5662 5661 5661 5660 5658 5656 5655 5655 5656 5656 5657 5657 5657 5657 5658 5658 5654 5658 5662 5664 5666
5688 5685 5677 5675 5665 5661 5663 5669 5673 5676 5670 5668 5665 5663 5659 5656 5652 5650 5646 5644 5642 5643 5642 5642 5642 5642 5641 5641 5641 5640 5640 5641 5640 5637 5635 5635 5636 5637 5638 5640 5640 5642 5641 5641 5641 5640 5645 5648 5650
5668 5664 5662 5658 5653 5645 5640 5642 5653 5652 5650 5648 5646 5642 5639 5637 5634 5632 5629 5625 5623 5623 5623 5622 5621 5621 5620 5620 5620 5620 5620 5619 5621 5620 5617 5618 5618 5617 5619 5619 5621 5624 5625 5625 5625 5624 5627 5633 5634
5648 5646 5646 5638 5636 5632 5624 5620 5630 5630 5630 5629 5626 5624 5620 5614 5613 5611 5609 5605 5604 5603 5603 5602 5601 5599 5600 5601 5603 5600 5599 5601 5599 5599 5599 5597 5597 5598 5598 5600 5600 5604 5608 5609 5610 5611 5611 5616 5619